Regional Weather Roundup
Issued by NWS Upton, NY

Current Version | Previous Version | Graphics & Text | Print | Product List | Glossary Off
Versions: 1 2 3 4 5 6 7 8 9 10 11 12 13 14 15 16 17 18 19 20 21 22 23 24 25 26 27 28 29 30 31 32 33 34 35 36 37 38 39 40 41 42 43 44 45 46 47 48 49 50

489
ASUS41 KOKX 301408
RWROKX

REGIONAL WEATHER ROUNDUP
NATIONAL WEATHER SERVICE NEW YORK NY
1000 AM EDT SUN APR 30 2017

NOTE: "FAIR" INDICATES FEW OR NO CLOUDS BELOW 12,000 FEET WITH NO
SIGNIFICANT WEATHER AND/OR OBSTRUCTIONS TO VISIBILITY.

NYZ071-072-176-178-NJZ106-104-301500-
NEW YORK CITY METRO AREA

CITY           SKY/WX    TMP DP  RH WIND       PRES   REMARKS
Central Park   PTSUNNY   59  38  45 E8G16     30.27S
Wall St Helipt CLOUDY    61  41  48 NE8       30.25R
Bronx Bot Gard   N/A     57  36  44 E12       30.27R
LaGuardia APRT CLOUDY    60  40  47 NE12      30.24S
Kennedy INTL   CLOUDY    63  40  42 E12       30.25S
Breezy Point     N/A     57 N/A N/A E9          N/A
Newark/Liberty CLOUDY    62  38  40 E8        30.23S
Teterboro      CLOUDY    59  38  45 E12       30.23F
$$

NYZ177-179-078>081-301500-
LONG ISLAND NEW YORK

CITY           SKY/WX    TMP DP  RH WIND       PRES   REMARKS
Jones Beach      N/A     59 N/A N/A E13         N/A
Matinecock PT    N/A     54 N/A N/A E16         N/A
Farmingdale    PTSUNNY   61  41  47 E9        30.24F
MacArthur/ISP  CLOUDY    61  40  45 NE10      30.24F
Shirley        NOT AVBL
Mt Sinai Harb    N/A     54 N/A N/A E2          N/A
Westhampton    CLOUDY    61  40  45 E7        30.28R
East Hampton   PTSUNNY   55  39  55 E15G23    30.27R
Montauk          N/A     55  40  56 E9        30.28
$$

NYZ052-065-067-301500-
HUDSON VALLEY

CITY           SKY/WX    TMP DP  RH WIND       PRES   REMARKS
White Plains   MOSUNNY   61  39  44 E9        30.24F
Larchmont Harb   N/A     54 N/A N/A NE12        N/A
Croton O-T Hud   N/A     59 N/A N/A S2          N/A
Newburgh       NOT AVBL
Montgomery     CLOUDY    56  36  47 NE12      30.23F
Poughkeepsie   CLOUDY    54  34  46 CALM      30.24F
Albany         PTSUNNY   49  28  44 N9        30.27F
$$

NJZ001-105-106-008-010-013-015-019>022-104-301500-
NEW JERSEY

CITY           SKY/WX    TMP DP  RH WIND       PRES   REMARKS
Newark/Liberty CLOUDY    62  38  40 E8        30.23S
Teterboro      CLOUDY    59  38  45 E12       30.23F
Caldwell       CLOUDY    59  39  47 E9        30.24S
Somerville     CLOUDY    63  42  46 CALM      30.21R
Linden         CLOUDY    62  36  38 E7        30.25R
Perth Amboy      N/A     57 N/A N/A E9          N/A
Sussex         CLOUDY    56  40  55 NE7       30.23F
Andover          N/A     59  38  45 NE5       30.22F
Trenton        CLOUDY    64  46  52 E10       30.21R
Millville      CLOUDY    68  56  65 E18       30.19S
Atlantic City  CLOUDY    65  43  44 NE16G24   30.22R
Wrightstown    PTSUNNY   64  43  46 E8        30.19S
Toms River     PTSUNNY   62  41  46 E8        30.24S
Belmar         CLOUDY    61  39  44 E16       30.24S
$$

PAZ047>061-062-071-301500-
EASTERN PENNSYLVANIA

CITY           SKY/WX    TMP DP  RH WIND       PRES   REMARKS
Philadelphia   CLOUDY    67  52  58 E13G21    30.20F
Allentown      CLOUDY    64  46  52 E7        30.19F
Scranton       CLOUDY    57  40  52 CALM      30.19R
$$

CTZ002-004>006-009-010-012-RIZ004-006-007-MAZ004-011-015-301500-
SOUTHERN NEW ENGLAND
 IN CT

CITY           SKY/WX    TMP DP  RH WIND       PRES   REMARKS
Bradley INTL   MOSUNNY   58  33  39 CALM      30.26F
Hartford       CLOUDY    57  36  45 CALM      30.26F
Danbury        CLOUDY    55  39  54 E8        30.26F
Wtrbury/Oxford PTSUNNY   55  34  44 E9        30.26S
Bridgeport     CLOUDY    60  39  45 E9        30.26S
Meriden        PTSUNNY   60  37  42 NE6       30.25F
New Haven      CLOUDY    59  39  47 NE5       30.25F
Chester        PTSUNNY   59  37  44 E3        30.25F
Groton         PTSUNNY   55  42  61 SE17      30.25S
Wilimantic     SUNNY     62  35  36 CALM      30.26F

 IN RI

CITY           SKY/WX    TMP DP  RH WIND       PRES   REMARKS
Providence     MOSUNNY   59  34  39 NE8       30.28S
Block Island   MOSUNNY   53  43  68 E12G20    30.28S
Westerly       MOSUNNY   57  45  64 SE12      30.27S
 IN MA

CITY           SKY/WX    TMP DP  RH WIND       PRES   REMARKS
Boston         PTSUNNY   50  35  56 E17       30.29F
Worcester      MOSUNNY   51  29  42 CALM      30.26S
Westfield      MOSUNNY   54  31  41 NE10G18   30.27F
Provincetown   MOSUNNY   48  34  58 NE16      30.31S
Nantucket      SUNNY     51  32  48 NE18G29   30.29S
$$

ANZ330-335-338-340-345-350-353-355-301500-
COASTAL MARINE OBSERVATIONS


STATION/POSITION TIME  SKY/WX   TEMP    WIND        PRES    VSBY  WAVE
                                AIR SEA DIR/SP/G                  HT/PER
                 (UTC)          (F)     (DEG/KT/KT) (MB)    (MI)  (FT/S)
NY HARB ENTRANCE 1250            53 49   40/  8/ 10 1024.0          3/ 7
20 S FIRE ISLAND 1250            52 49   50/ 10/ 12 1023.2          3/ 7
GREAT SOUTH BAY  1315            59 61   60/ 10/ 12   N/A
23 SSW MONTAUK P 1250            52 48              1024.7          3/ 7
15 E BARNEGAT LI 1330               54                N/A           3/ 7
HUDSON CANYON    1250            53 50   70/ 12/ 12 1023.2          4/ 6
KINGS POINT      1342            59 53   70/  5/ 10 1023.9
EXECUTION ROCKS  NOT AVBL
CENTRAL LI SOUND 1330            52      40/  4/  6   N/A           0
EASTERN LI SOUND NOT AVBL
ROBBINS REEF     1342            58      40/  9/ 10 1023.9
$$


>>>>>>>>>>>>>>>>>>>>>>>>>>>> KEY <<<<<<<<<<<<<<<<<<<<<<<<<<<
>                                                          <
>     SKY/WX - Sky Condition/Present Weather               <
>     TMP    - Temperature in Fahrenheit                   <
>     DP     - Dew Point in Fahrenheit                     <
>     RH     - Relative Humidity in Percent                <
>     WIND   - Direction (from) and Speed in MPH           <
>     PRES   - Mean Sea Level Pressure (inches of Hg)      <
>     WCI    - Wind Chill Index                            <
>     VSB    - VISIBILITY IN MILES                         <
>     HX     - HEAT INDEX                                  <
>     TC     - TEMPERATURE IN CELSIUS                      <
>     VRB    - VARIABLE WIND DIRECTION                     <
>                                                          <
>>>>>>>>>>>>>>>>>>>>>>>>>>>> KEY <<<<<<<<<<<<<<<<<<<<<<<<<<<




USA.gov is the U.S. government's official web portal to all federal, state and local government web resources and services.